Flag for U.S.A. Weather past 2 weeks in Gloucester, Massachusetts, U.S.A.

Now
68 °F

Passing clouds.


Feels Like: 68 °F
Forecast: 62 / 74 °F
Wind: 9 mph from Southwest

Location: Beverly Municipal Airport

Current Time: May 28, 2015 at 5:10:49 AM

Latest Report: May 28, 2015 at 3:53 AM


Visibility: 10 mi

Pressure: 30.07 "Hg

Humidity: 78%

Dew point: 61 °F

Location of GloucesterLocation

Historic Weather in Gloucester — Graph

°F

Gloucester temperature yesterday

Maximum temperature yesterday: 86 °F (at 1:53 PM)
Minimum temperature yesterday: 68 °F (at 3:53 AM)
Average temperature yesterday: 75 °F

Past Weeks' High & Low Weather Summary

 TemperatureHumidityPressure
High86 °F (May 27, 1:53 PM)97% (May 17, 3:53 AM)30.32 "Hg (May 17, 3:53 AM)
Low40 °F (May 21, 4:53 AM)20% (May 23, 5:53 PM)29.66 "Hg (May 20, 1:53 AM)
Average61 °F58%30.07 "Hg
* Reported May 13 3:53 AM — May 28 3:53 AM, Gloucester, Weather by CustomWeather, © 2015

Note: Actual official high and low records may vary slightly from our data, if they occured in-between our weather recording intervals... More about our weather records

Advertising

Gloucester weather history for previous 24 hours

 ConditionsComfort  
Time TempWeatherWind HumidityBarometerVisibility
3:53 AM
Thu, May 28
68 °FPassing clouds.9 mph78%30.07 "Hg10 mi
2:53 AM68 °FClear.8 mph78%30.07 "Hg10 mi
1:53 AM69 °FPassing clouds.8 mph76%30.07 "Hg10 mi
12:53 AM70 °FClear.12 mph76%30.07 "Hg10 mi
11:53 PM
Wed, May 27
71 °FClear.10 mph73%30.08 "Hg10 mi
10:53 PM72 °FClear.13 mph71%30.08 "Hg10 mi
9:53 PM73 °FClear.13 mph69%30.09 "Hg10 mi
8:53 PM74 °FSunny.16 mph69%30.09 "Hg10 mi
7:53 PM75 °FBroken clouds.10 mph66%30.08 "Hg10 mi
6:53 PM78 °FSunny.20 mph64%30.05 "Hg10 mi
5:53 PM82 °FScattered clouds.17 mph56%30.03 "Hg10 mi
4:53 PM81 °FPartly sunny.14 mph60%30.02 "Hg10 mi
3:53 PM83 °FScattered clouds.17 mph57%30.02 "Hg10 mi
2:53 PM84 °FPartly sunny.15 mph55%30.04 "Hg10 mi
1:53 PM86 °FSunny.17 mph51%30.06 "Hg10 mi
12:53 PM84 °FPassing clouds.13 mph57%30.08 "Hg10 mi
11:53 AM82 °FSunny.15 mph58%30.09 "Hg10 mi
10:53 AM79 °FSunny.10 mph60%30.11 "Hg10 mi
9:53 AM76 °FSunny.9 mph64%30.12 "Hg10 mi
8:53 AM74 °FSunny.8 mph69%30.12 "Hg10 mi
7:53 AM72 °FSunny.10 mph71%30.13 "Hg10 mi
6:53 AM68 °FSunny.9 mph76%30.13 "Hg10 mi
5:53 AM68 °FClear.8 mph76%30.12 "Hg10 mi
Weather by CustomWeather, © 2015

See weather overviewHow to use our weather pages